Weather History for Jordan, MT

Change the Weather History Date:

Tuesday, November 15, 2011

  Actual Average Record
Temperature  
Mean Temperature 29 °F 30 °F  
Max Temperature 37 °F 44 °F 76 °F (1953)
Min Temperature 20 °F 17 °F -20 °F (1932)
Degree Days  
Heating Degree Days 36 35  
Month to date heating degree days 474 469  
Since 1 July heating degree days 1152 1442  
Cooling Degree Days 0 0  
Month to date cooling degree days 0 0  
Year to date cooling degree days 494 421  
Moisture  
Dew Point 12 °F    
Average Humidity 50    
Maximum Humidity 74    
Minimum Humidity 26    
Precipitation  
Precipitation 0.00 in 0.01 in 0.29 in (1958)
Month to date precipitation 0.12 0.25  
Year to date precipitation 16.05 12.27  
Snow  
Snow 0.00 in - - ()
Month to date snowfall 0.0  
Since 1 July snowfall 0.0  
Since 1 September snowfall 0.0  
Snow Depth 0.00 in    
Sea Level Pressure  
Sea Level Pressure 29.97 in    
Wind  
Wind Speed 11 mph (WNW)    
Max Wind Speed 24 mph    
Max Gust Speed 32 mph    
T = Trace of Precipitation, MM = Missing Value Source: NWS Daily Summary

Daily Weather History Graph

Daily Weather History Graph

Search for Another Location

Airport:

Trip Planner

Search our weather history database for the weather conditions in past years. The results will help you decide how hot, cold, wet, or windy it might be!

Date:

Astronomy

Nov. 15, 2011 Rise Set
Actual Time 7:11 AM MST 4:32 PM MST
Civil Twilight 6:38 AM MST 5:05 PM MST
Nautical Twilight 6:01 AM MST 5:42 PM MST
Astronomical Twilight 5:25 AM MST 6:19 PM MST
Moon 8:43 PM MST (11/15) 11:15 AM MST (11/15)
Length of Visible Light 10h 27m
Length of Day
9h 20m
Waning Gibbous, 78% of the Moon is Illuminated
Nov 15
Waning Gibbous
Nov 18
Last Quarter
Nov 24
New
Dec 2
First Quarter
Dec 10
Full

Hourly Weather History & Observations

Time (MST) Temp. Windchill Dew Point Humidity Pressure Visibility Wind Dir Wind Speed Gust Speed Precip Events Conditions
12:48 AM 30.0 °F 19.5 °F 19.9 °F 66% 29.70 in - WNW 13.8 mph - N/A   Unknown
1:48 AM 28.9 °F 17.7 °F 18.0 °F 64% 29.74 in - West 15.0 mph - N/A   Unknown
2:48 AM 27.0 °F 16.7 °F 17.1 °F 66% 29.78 in - WNW 11.5 mph - N/A   Unknown
3:48 AM 24.1 °F 14.4 °F 16.0 °F 71% 29.82 in - West 9.2 mph - N/A   Unknown
4:48 AM 23.0 °F 12.4 °F 15.1 °F 72% 29.85 in - WSW 10.4 mph - N/A   Unknown
5:48 AM 19.9 °F 11.1 °F 12.9 °F 74% 29.88 in - WNW 6.9 mph - N/A   Unknown
6:48 AM 23.0 °F 14.7 °F 14.0 °F 68% 29.90 in - West 6.9 mph - N/A   Unknown
7:48 AM 23.0 °F 15.8 °F 15.1 °F 72% 29.94 in - West 5.8 mph - N/A   Unknown
8:48 AM 27.0 °F 15.6 °F 17.1 °F 66% 29.96 in - WNW 13.8 mph - N/A   Unknown
9:48 AM 30.9 °F 20.2 °F 17.1 °F 57% 29.96 in - WNW 15.0 mph - N/A   Unknown
10:48 AM 32.0 °F 21.6 °F 15.1 °F 50% 29.97 in - West 15.0 mph - N/A   Unknown
11:48 AM 34.0 °F 23.4 °F 12.9 °F 42% 29.96 in - West 17.3 mph 26.5 mph N/A   Unknown
12:48 PM 36.0 °F 26.7 °F 10.0 °F 34% 29.97 in - West 15.0 mph 24.2 mph N/A   Unknown
1:48 PM 34.0 °F 24.2 °F 3.9 °F 28% 29.97 in - WNW 15.0 mph 25.3 mph N/A   Unknown
2:48 PM 36.0 °F 24.7 °F 3.9 °F 26% 29.99 in - WNW 21.9 mph 28.8 mph N/A   Unknown
3:48 PM 34.0 °F 24.6 °F 3.9 °F 28% 30.02 in - West 13.8 mph - N/A   Unknown
4:48 PM 28.0 °F 21.7 °F 5.0 °F 38% 30.04 in - West 5.8 mph - N/A   Unknown
5:48 PM 23.0 °F 15.8 °F 6.1 °F 48% 30.07 in - WNW 5.8 mph - N/A   Unknown
6:48 PM 21.0 °F 14.6 °F 8.1 °F 57% 30.09 in - West 4.6 mph - N/A   Unknown
7:48 PM 21.9 °F 14.5 °F 10.0 °F 60% 30.09 in - WNW 5.8 mph - N/A   Unknown
8:48 PM 23.0 °F 15.8 °F 10.9 °F 60% 30.09 in - West 5.8 mph - N/A   Unknown
9:48 PM 27.0 °F 19.5 °F 12.0 °F 53% 30.11 in - WNW 6.9 mph - N/A   Unknown
10:48 PM 25.0 °F 15.5 °F 9.0 °F 51% 30.14 in - NW 9.2 mph - N/A   Unknown
11:48 PM 26.1 °F 15.6 °F 7.0 °F 44% 30.16 in - NW 11.5 mph - N/A   Unknown